Regional Weather Roundup
Issued by NWS

Home | Current Version | Previous Version | Graphics & Text | Print | Product List | Glossary On
Versions: 1 2 3 4 5 6 7 8 9 10 11 12 13 14 15 16 17 18 19 20 21 22 23 24 25 26 27 28 29 30 31 32 33 34 35 36 37 38 39 40 41 42 43 44 45 46 47 48 49 50
000
ASUS45 KCYS 300510
RWRWY

WYOMING REGIONAL WEATHER ROUNDUP
NATIONAL WEATHER SERVICE CHEYENNE WY
1100 PM MDT SUN MAR 29 2015

NOTE:  "FAIR" INDICATES FEW OR NO CLOUDS BELOW 12,000 FEET
WITH NO SIGNIFICANT WEATHER AND/OR OBSTRUCTIONS TO VISIBILITY.

WYZ001-300600-
YELLOWSTONE NATIONAL PARK

CITY           SKY/WX    TMP DP  RH WIND       PRES   REMARKS
LK YELLOWSTONE   N/A     26  18  71 CALM      30.28S
W YELLOWSTONE  NOT AVBL

$$
WYZ002>013-054>058-071-098>099-300600-
NORTHERN WYOMING

CITY           SKY/WX    TMP DP  RH WIND       PRES   REMARKS
JACKSON        FAIR      39  21  48 W7        30.24F WCI  34
CODY           FAIR      54  14  20 W16G26    30.11S
GREYBULL       FAIR      46  20  35 SE5       30.07S
WORLAND        FAIR      40  22  48 CALM      30.08R
SHERIDAN       FAIR      37  27  67 CALM      30.04F
BUFFALO        FAIR      43  25  49 SW8       30.08F
GILLETTE       FAIR      37  26  64 S6        30.06F WCI  32
HULETT         FAIR      41  27  56 S8        30.06F
NEWCASTLE      FAIR      43  25  49 N6        30.08F

$$
WYZ014>020-022>026-101>103-300600-
CENTRAL WYOMING

CITY           SKY/WX    TMP DP  RH WIND       PRES   REMARKS
BIG PINEY      FAIR      30  16  56 W6        30.26R WCI  24
PINEDALE       FAIR      32  21  64 NW5       30.26S WCI  27
DUBOIS         FAIR      37  18  44 NW9       30.20S WCI  31
LANDER         FAIR      48  13  24 W7        30.13R
RIVERTON       FAIR      50  17  27 NW17      30.12F
CASPER         FAIR      35  18  49 CALM      30.11S
DOUGLAS        FAIR      39  20  46 CALM      30.11F

$$
WYZ021-027>030-104>119-300600-
SOUTHERN WYOMING

CITY           SKY/WX    TMP DP  RH WIND       PRES   REMARKS
EVANSTON       FAIR      41  14  33 W6        30.28S
KEMMERER       FAIR      37  12  35 SW6       30.28S WCI  33
ROCK SPRINGS   FAIR      44  12  27 SW8       30.24R
DIXON          FAIR      36  19  48 E6        30.26S WCI  32
RAWLINS        FAIR      42  10  27 SW9       30.19F
SARATOGA       FAIR      39  14  35 S14       30.22S WCI  31
LARAMIE        FAIR      40  13  33 W5        30.21S
CHEYENNE       FAIR      48  23  37 SW14      30.18S
TORRINGTON     FAIR      46  22  38 E12       30.07F
PINE BLUFFS    FAIR      41  21  45 SW12      30.15S

$$


USA.gov is the U.S. government's official web portal to all federal, state and local government web resources and services.